Regional Weather Roundup
Issued by NWS

Home | Current Version | Previous Version | Graphics & Text | Print | Product List | Glossary On
Versions: 1 2 3 4 5 6 7 8 9 10 11 12 13 14 15 16 17 18 19 20 21 22 23 24 25 26 27 28 29 30 31 32 33 34 35 36 37 38 39 40 41 42 43 44 45 46 47 48 49 50
000
ASUS43 KOAX 171102
RWRNE

WEATHER ROUNDUP FOR NEBRASKA
NATIONAL WEATHER SERVICE OMAHA NE
500 AM CST TUE JAN 17 2017

NOTES: SATELLITE DATA IS BEING USED TO AUGMENT CLOUD COVER ABOVE
       12000 FEET.
       "FAIR" INDICATES FEW OR NO CLOUDS BELOW 12,000 FEET WITH NO
       SIGNIFICANT WEATHER AND/OR OBSTRUCTIONS TO VISIBILITY.

  * THESE STATIONS DO NOT REPORT WEATHER SUCH AS RAIN...SNOW OR FOG.

NEZ001>004-019>022-054>056-171200-
NEBRASKA PANHANDLE

CITY           SKY/WX    TMP DP  RH WIND       PRES   REMARKS
SCOTTSBLUFF    CLOUDY    17  11  77 W5        30.06F WCI  10
ALLIANCE       CLOUDY    13   8  81 W7        30.03F WCI   3
CHADRON        CLOUDY    10   5  80 W9        30.04F WCI  -3
SIDNEY         CLOUDY    17  10  74 NW15      30.06F WCI   2
$$

NEZ057>060-069>072-079>082-171200-
SOUTHWEST NEBRASKA

CITY           SKY/WX    TMP DP  RH WIND       PRES   REMARKS
NORTH PLATTE   CLOUDY    20  16  84 NW6       30.07R WCI  12
IMPERIAL       CLEAR     23  17  78 W5        30.08S WCI  17
LEXINGTON      CLOUDY    26  20  80 NW9       30.06S WCI  16
MCCOOK         CLEAR     27  22  81 W9        30.09S WCI  18
OGALLALA       CLOUDY    22  18  84 W8        30.08S WCI  12
$$

NEZ005>010-023>029-035>040-094-171200-
NORTH CENTRAL NEBRASKA

CITY           SKY/WX    TMP DP  RH WIND       PRES   REMARKS
VALENTINE      CLOUDY    13   9  84 SW6       30.04F WCI   4
AINSWORTH      CLOUDY    18  16  91 W3        30.03S
BROKEN BOW     CLOUDY    24  18  77 NW9       30.04S WCI  14
O`NEILL        CLOUDY    20  17  88 NW12      30.04S WCI   7
ORD            CLOUDY    21  15  78 NW5       30.04R WCI  15
THEDFORD       CLOUDY    22  17  84 W8        30.04F WCI  12
$$

NEZ041-046>049-061>064-073>077-083>087-171200-
SOUTH CENTRAL NEBRASKA

CITY           SKY/WX    TMP DP  RH WIND       PRES   REMARKS
GRAND ISLAND   CLOUDY    22  20  92 NW7         N/A  WCI  13
AURORA         CLOUDY    24  22  90 NW3       30.04S
HASTINGS       CLOUDY    25  21  85 NW8       30.05S WCI  16
HEBRON         CLOUDY    29  25  86 CALM      30.05R
HOLDREGE       CLOUDY    25  21  86 CALM      30.06R
KEARNEY *      CLOUDY    25  18  74 CALM      30.06R
YORK           PTCLDY    25  23  93 MISG      30.03S
$$

NEZ011>018-030>034-042>045-171200-
NORTHEAST NEBRASKA

CITY           SKY/WX    TMP DP  RH WIND       PRES   REMARKS
NORFOLK        CLOUDY    18  13  80 NW10      30.03R WCI   6
ALBION         CLOUDY    18  15  86 NW3       30.04R FOG
BLAIR          CLOUDY    28  26  94 NW7       29.99S FOG     WCI  21
FREMONT        CLOUDY    26  23  89 NW13      30.02S WCI  14
TEKAMAH        CLOUDY    26  23  88 NW15      30.02R WCI  14
WAYNE          CLOUDY    18  14  85 NW3       30.04R
$$

NEZ050>053-065>068-078-088>093-171200-
SOUTHEAST NEBRASKA

CITY           SKY/WX    TMP DP  RH WIND       PRES   REMARKS
LINCOLN        PTCLDY    28  23  81 NW12      30.04R WCI  18
OMAHA EPPLEY   CLOUDY    30  25  81 NW12      30.02R WCI  20
BEATRICE       CLOUDY    32  29  90 NW6       30.03R WCI  26
FALLS CITY     CLOUDY    33  31  92 NW8       30.01S WCI  26
NEBRASKA CITY  CLOUDY    31  31 100 NW8       30.01R WCI  24
PLATTSMOUTH    CLOUDY    30  26  84 NW14G20   29.99S WCI  20
$$

NEZ044-045-051>053-067-171200-
OMAHA AREA

CITY           SKY/WX    TMP DP  RH WIND       PRES   REMARKS
OMAHA EPPLEY   CLOUDY    30  25  81 NW12      30.02R WCI  20
BLAIR          CLOUDY    28  26  94 NW7       29.99S FOG     WCI  21
FREMONT        CLOUDY    26  23  89 NW13      30.02S WCI  14
MILLARD        CLOUDY    31  27  83 NW8       30.01S WCI  24
OFFUTT AFB     CLOUDY    30  30  99 NW15      30.00S WCI  19
PLATTSMOUTH    CLOUDY    30  26  84 NW14G20   29.99S WCI  20
WAHOO          CLOUDY    27  21  80 NW15G22   30.02F WCI  15
$$




USA.gov is the U.S. government's official web portal to all federal, state and local government web resources and services.